Regional Weather Roundup
Issued by NWS Sioux Falls, SD

Home | Current Version | Previous Version | Graphics & Text | Print | Product List | Glossary Off
Versions: 1 2 3 4 5 6 7 8 9 10 11 12 13 14 15 16 17 18 19 20 21 22 23 24 25 26 27 28 29 30 31 32 33 34 35 36 37 38 39 40 41 42 43 44 45 46 47 48 49 50

000
ASUS43 KFSD 222310
RWRFSD

WEATHER ROUNDUP FOR SE SOUTH DAKOTA/SW MINNESOTA/NW IOWA
NATIONAL WEATHER SERVICE SIOUX FALLS SD
600 PM CDT SUN APR 22 2018

NOTE: "FAIR" INDICATES FEW OR NO CLOUDS BELOW 12,000 FEET WITH NO
SIGNIFICANT WEATHER AND OR OBSTRUCTIONS TO VISIBILITY.


SDZ038>040-050-052>070-230000-
SOUTHEAST SOUTH DAKOTA

CITY           SKY/WX    TMP DP  RH WIND       PRES   REMARKS
BROOKINGS      SUNNY     57  37  47 S13G21    30.21F
CHAMBERLAIN    SUNNY     64  36  36 S8G16     30.15F
HURON          SUNNY     62  37  39 S14       30.17F
MADISON        FAIR      57  39  51 SE12      30.20F
MITCHELL       SUNNY     62  39  42 S9        30.18S
SIOUX FALLS    MOSUNNY   61  37  41 SE13      30.19F
WINNER         FAIR      62  38  40 S13       30.14F
YANKTON        SUNNY     64  33  31 E6        30.17F
$$

MNZ071-072-080-081-089-090-097-098-230000-
SOUTHWEST MINNESOTA

CITY           SKY/WX    TMP DP  RH WIND       PRES   REMARKS
JACKSON        SUNNY     50  37  62 E6        30.25F
LUVERNE        SUNNY     55  36  47 SE12      30.22F
MARSHALL       SUNNY     54  37  52 S12       30.25R
MONTEVIDEO     SUNNY     57  39  51 S9        30.24F
PIPESTONE      SUNNY    N/A N/A N/A S10       30.22S
REDWOOD FALLS  SUNNY     57  41  55 SE12      30.24F
TRACY          SUNNY     53  39  60 SE9       30.24R
WINDOM         SUNNY     54  30  40 SE8       30.24F
WORTHINGTON    SUNNY     52  38  58 E15       30.22F
$$

IAZ001>003-012>014-020>022-031-032-NEZ013-014-SDZ071-230000-
NORTHWEST IOWA

CITY           SKY/WX    TMP DP  RH WIND       PRES   REMARKS
CHEROKEE       SUNNY     60  41  49 NE10      30.20F
DENISON        CLOUDY    64  28  25 E13       30.18S
ESTHERVILLE    SUNNY     47  39  74 E8        30.24F
LE MARS        SUNNY     63  37  39 E10G20    30.19F
ORANGE CITY    SUNNY     63  43  48 E10G17    30.20S
SHELDON        SUNNY     59  41  51 SE14G20   30.20S
SIOUX CITY     SUNNY     67  31  26 E13G21    30.16F
SPENCER        SUNNY     55  40  56 NE13      30.23F
STORM LAKE     SUNNY     59  43  55 NE15      30.20S
$$

ABBREVIATIONS USED IN REMARKS
   TC - TEMPERATURE IN CELSIUS
  WCI - WIND CHILL INDEX
   HX - HEAT INDEX
  VSB - VISIBILITY





USA.gov is the U.S. government's official web portal to all federal, state and local government web resources and services.